Wetbulb
57.28 57.14 57.27 58.02 57.93 57.52 57.32 57.29 57.18 57.03 56.90 57.19 57.11 56.89 56.61 56.23 56.58 57.13 57.26 57.21 57.45 57.97 57.86 57.06 57.37 54.80 49.41 43.89 40.56 44.36 49.29 48.22 47.57 47.88 46.20 48.20 47.80 46.99 44.24 43.09 42.58 41.14 38.84 38.42 38.07 37.62 37.35
56.91 56.82 56.87 57.52 57.85 57.63 57.36 57.14 56.96 56.80 56.40 56.72 56.76 56.63 56.28 56.24 56.03 56.38 56.78 57.13 56.97 57.72 57.24 57.07 56.88 51.96 45.87 41.53 43.24 44.48 42.86 45.08 45.00 46.03 44.44 46.64 46.87 47.52 43.78 40.63 41.13 40.19 39.28 37.57 37.50 36.75 35.94
56.58 56.56 56.48 56.82 57.34 57.54 57.59 57.37 57.10 57.21 56.57 56.34 56.39 56.16 56.24 55.98 55.91 55.94 56.28 56.12 56.55 57.56 56.72 55.76 55.64 46.52 43.88 41.24 43.90 44.14 43.04 42.81 43.74 43.84 42.70 42.04 46.09 46.42 44.19 39.92 41.23 40.11 36.51 36.57 36.76 36.98 35.54
56.80 56.37 56.05 56.04 56.37 56.76 57.16 57.31 57.63 57.58 56.61 55.70 55.49 55.67 55.62 55.55 55.09 55.64 55.78 55.65 56.65 57.11 56.06 54.96 53.23 46.94 42.06 45.30 46.04 42.68 43.15 42.82 44.68 43.66 42.18 41.68 45.69 42.90 41.99 42.42 39.57 38.03 37.67 35.53 34.72 35.88 34.78
57.53 57.29 56.68 56.19 56.05 56.09 56.44 56.98 56.95 56.95 56.70 56.16 55.71 55.04 55.00 55.55 55.52 56.06 55.92 55.58 56.10 56.84 52.57 53.51 46.73 45.67 40.88 44.67 40.88 42.17 41.37 40.53 42.04 42.95 42.13 41.02 41.99 40.65 40.75 39.54 37.11 36.69 36.33 34.82 33.21 33.44 34.02
58.11 58.13 57.92 57.52 57.49 57.30 56.94 56.42 56.56 56.50 56.05 55.93 55.77 55.20 54.71 55.50 55.14 55.44 54.50 53.94 49.45 50.90 47.41 45.50 43.90 42.39 40.26 38.22 40.17 40.22 41.01 40.50 40.46 41.08 40.19 39.84 38.70 38.37 37.73 37.53 34.90 35.24 33.14 32.98 34.42 31.44 30.71
58.34 58.36 58.18 58.10 58.10 58.03 57.90 57.66 57.23 56.69 56.70 56.05 55.78 55.16 54.78 55.14 54.35 54.64 51.21 50.04 47.33 46.01 42.96 36.83 36.97 37.00 37.63 40.49 40.80 39.10 38.99 38.77 39.42 39.18 36.82 34.89 35.37 34.44 37.03 36.08 31.23 31.56 31.89 32.11 31.22 28.28 28.03
58.90 58.76 58.65 58.53 58.45 58.38 58.19 57.86 57.62 57.54 57.53 56.69 55.37 54.90 54.60 54.98 54.16 52.57 50.70 44.82 43.10 42.48 39.11 38.80 37.91 37.49 38.15 38.84 35.79 37.49 39.89 36.09 36.29 35.20 33.14 33.70 33.22 29.97 29.64 28.81 28.75 28.54 28.84 29.61 28.67 27.22 26.02
59.42 59.22 59.12 58.95 58.71 58.49 58.29 58.07 57.82 57.74 57.56 56.80 55.87 54.89 54.41 53.90 52.30 49.95 47.39 45.16 47.34 47.27 39.71 38.13 37.53 36.21 36.44 38.03 33.98 34.70 36.90 34.31 32.96 31.69 30.89 33.00 28.78 29.00 28.45 26.87 26.65 27.46 27.65 27.41 26.26 26.31 27.66
60.43 60.19 60.02 59.69 59.32 59.01 58.52 58.17 58.01 57.96 57.38 56.59 56.03 54.97 54.02 51.06 49.71 45.34 45.16 45.74 47.49 48.46 39.50 37.91 36.44 36.47 36.70 36.74 33.80 35.86 35.45 34.08 32.17 31.15 29.60 29.96 28.28 27.33 26.88 26.62 27.70 26.44 26.31 24.78 23.69 24.90 25.39
60.83 60.74 60.49 60.12 59.76 59.50 58.94 58.56 58.33 57.95 57.13 56.45 55.81 54.83 53.25 47.98 44.86 44.75 45.31 46.82 49.02 47.17 36.32 36.56 36.05 39.66 36.26 34.00 33.01 33.28 35.04 33.75 31.14 29.88 30.10 31.22 26.58 26.18 25.67 26.54 27.18 25.22 25.18 23.81 23.10 23.16 19.97
58.43 58.69 59.19 59.49 59.65 59.58 59.29 58.95 58.69 58.03 57.20 56.50 55.52 54.52 51.53 46.84 45.00 44.19 45.82 49.59 48.12 40.69 34.60 35.82 35.84 34.24 33.80 32.69 32.26 33.31 32.51 34.22 32.26 29.07 27.99 27.09 27.51 27.05 27.31 25.73 26.02 26.09 23.93 22.87 22.43 22.03 19.38
57.02 56.99 57.48 57.97 58.32 58.18 58.32 58.69 58.88 58.56 57.94 56.88 55.31 53.79 49.47 43.18 45.35 43.54 48.78 46.85 39.56 36.62 38.51 35.49 33.78 32.84 31.36 31.99 31.15 30.28 29.18 29.31 29.43 28.76 27.57 25.02 25.22 25.49 26.68 24.26 25.26 24.29 23.62 24.59 23.90 18.76 25.07
56.37 56.32 56.40 56.69 57.18 57.19 57.20 57.34 57.96 58.45 58.08 56.47 53.16 52.77 48.59 43.93 43.81 47.20 47.45 42.04 35.21 39.07 37.29 33.66 32.34 31.22 31.81 29.29 29.76 29.24 28.63 29.84 25.95 26.51 26.89 27.38 27.29 23.29 26.36 25.35 25.08 23.48 24.29 25.68 21.12 25.30 26.26
54.83 55.29 55.92 56.09 55.92 55.75 55.80 56.48 56.87 57.12 56.93 52.42 53.06 52.69 49.01 44.32 43.96 46.53 42.39 38.08 39.01 40.05 35.84 33.81 34.14 32.82 32.64 29.53 28.84 29.10 28.95 30.29 28.80 26.94 29.15 25.12 25.77 24.18 24.41 25.12 24.61 22.90 20.89 22.43 18.90 15.50 17.21
52.51 53.10 54.09 54.76 55.07 55.13 55.06 55.30 56.00 56.23 55.65 50.87 51.31 46.96 50.05 42.96 45.51 44.06 40.01 38.90 40.84 37.40 33.74 33.41 34.51 35.70 33.51 31.95 30.92 30.29 32.25 31.96 28.24 27.31 27.23 27.12 26.26 23.10 23.03 24.94 23.91 22.38 24.84 18.91 19.25 16.82 17.52
50.98 51.18 51.73 52.54 53.43 54.27 54.49 54.61 55.08 55.92 52.42 50.46 49.41 45.85 44.79 43.64 44.64 41.16 38.39 40.12 37.92 34.90 35.10 32.88 31.30 31.19 34.24 33.29 31.39 30.97 33.47 30.68 28.32 24.77 26.74 26.34 25.34 21.13 21.56 20.92 23.32 18.43 20.02 19.51 19.97 19.99 18.09
50.08 50.34 50.89 50.88 51.63 52.69 53.13 54.02 54.25 55.09 52.79 49.73 45.45 42.89 43.07 44.88 39.21 36.94 34.70 35.98 36.84 33.58 32.20 30.89 29.11 30.31 34.07 32.02 28.35 27.03 30.36 33.05 29.17 26.25 24.09 26.87 24.43 21.97 23.42 21.41 21.28 21.74 22.09 22.65 20.99 18.35 16.57
49.14 49.61 49.76 49.87 50.48 51.49 52.10 52.66 53.14 53.94 51.71 50.09 44.43 46.77 44.49 44.22 38.06 37.47 39.07 35.58 32.99 30.47 30.65 28.56 28.08 30.17 31.02 29.35 28.02 29.41 28.65 27.36 27.78 26.63 23.97 25.19 23.06 19.50 22.03 18.14 17.38 17.46 20.85 21.01 17.63 18.08 16.47
49.08 49.36 49.34 49.04 49.27 50.45 51.33 51.94 52.52 53.06 50.59 50.42 45.34 39.82 41.25 38.57 36.08 35.50 35.50 34.10 31.92 30.88 29.46 28.82 27.75 28.95 26.39 25.72 28.43 27.60 28.93 25.57 26.47 26.68 28.74 28.79 23.96 24.21 25.50 27.96 20.42 15.64 17.92 19.04 18.23 15.73 17.47
48.56 48.63 48.71 48.73 49.03 50.66 50.73 50.90 51.04 52.08 50.95 49.95 44.74 40.19 41.55 37.49 38.43 35.56 35.15 33.77 32.65 32.56 29.97 29.52 29.69 26.85 27.10 25.21 25.14 26.86 29.14 26.42 24.46 26.98 27.40 26.07 18.69 21.39 21.56 22.97 20.44 19.47 19.78 19.70 15.39 17.49 15.25
48.06 48.40 48.28 48.19 48.17 48.73 50.15 50.41 50.53 50.79 50.87 46.91 40.92 40.96 39.48 38.72 37.59 34.09 35.52 34.09 33.99 35.67 33.95 30.86 28.67 34.61 28.43 26.32 31.49 31.77 30.29 26.34 26.56 24.48 23.89 24.68 19.51 17.30 16.64 20.28 19.60 17.26 19.64 19.87 20.12 19.83 19.54
46.99 47.36 47.84 48.05 48.14 47.94 48.95 48.91 49.41 49.74 49.25 44.42 44.30 41.83 41.30 37.31 35.60 32.87 33.71 34.48 34.40 35.84 37.00 37.39 32.67 32.05 29.13 29.98 34.49 34.34 33.50 29.78 29.05 22.65 21.74 19.61 18.30 15.66 16.58 15.77 16.06 14.53 18.55 18.98 19.33 21.70 19.68
47.58 47.24 47.43 47.37 47.26 47.10 47.38 47.76 47.94 48.79 48.92 45.82 45.16 41.79 37.13 31.79 34.96 33.82 35.13 35.89 35.29 35.97 33.99 37.30 35.93 32.36 33.60 31.10 28.37 26.58 26.11 25.97 26.23 24.82 25.80 19.98 17.83 17.50 14.77 15.43 12.44 21.21 19.16 18.85 20.20 21.18 22.68
47.38 47.18 47.15 46.91 46.71 46.32 46.90 47.18 47.07 47.91 48.38 46.48 45.83 41.00 37.54 31.88 35.00 34.79 35.56 35.28 36.33 37.11 34.86 34.68 36.20 33.59 31.97 27.79 24.69 23.30 21.68 19.38 20.87 22.27 22.65 23.91 19.83 16.26 13.26 13.11 19.42 21.90 14.73 14.76 15.09 19.20 21.87
46.23 46.36 46.69 46.68 46.43 46.22 46.05 45.97 46.66 46.85 47.15 45.28 44.74 45.14 39.73 32.92 32.98 36.44 34.58 35.75 34.08 33.58 34.47 29.53 26.70 30.64 28.56 26.68 24.49 21.33 21.24 25.20 17.70 13.63 19.40 21.37 22.34 17.25 14.26 9.59 11.35 15.76 16.23 18.47 19.42 13.83 18.49
45.14 45.50 45.72 45.87 46.14 46.02 45.90 45.80 45.86 45.99 45.67 45.02 43.78 45.46 41.30 33.41 35.85 37.35 34.39 33.67 35.25 32.98 31.11 25.92 24.39 24.20 26.89 23.85 20.91 21.06 21.30 22.92 19.04 15.48 11.33 14.02 15.06 13.06 13.56 11.89 15.30 21.82 18.39 18.96 12.19 16.15 17.55
44.35 44.76 45.33 45.64 46.02 45.94 45.74 45.28 44.88 44.87 45.16 45.22 43.16 44.98 40.69 35.03 36.61 37.91 38.33 34.79 34.10 33.04 30.02 26.35 23.92 22.89 22.24 20.54 21.27 23.38 21.02 21.70 17.68 19.00 13.55 13.01 11.41 11.06 12.99 10.28 7.34 18.65 15.94 14.15 18.09 17.36 18.94
44.68 44.89 44.98 44.91 45.27 45.48 45.20 45.05 44.52 44.82 45.07 45.62 40.03 43.48 43.72 37.76 35.17 36.53 37.72 36.24 36.55 37.05 33.39 28.17 31.19 26.32 25.97 23.29 23.28 24.26 19.67 17.83 18.92 17.32 19.17 13.97 19.11 15.08 15.58 15.37 18.33 19.85 18.21 19.84 18.25 18.77 18.04
MSLP
1026.35 1026.09 1025.76 1025.40 1025.00 1024.69 1024.36 1024.04 1023.71 1023.25 1022.73 1022.27 1021.88 1021.57 1021.21 1020.80 1020.44 1020.06 1019.61 1019.21 1018.83 1018.56 1018.31 1018.09 1017.82 1017.56 1017.28 1017.11 1017.85 1018.13 1017.89 1017.37 1016.83 1016.38 1016.20 1015.93 1015.64 1015.61 1015.84 1016.63 1017.29 1017.63 1018.77 1019.60 1020.41 1020.91 1021.49
1026.76 1026.46 1026.19 1025.75 1025.35 1024.90 1024.52 1024.25 1023.96 1023.48 1022.94 1022.41 1021.91 1021.50 1021.10 1020.74 1020.38 1019.94 1019.54 1019.24 1018.93 1018.60 1018.24 1017.98 1017.72 1017.48 1017.27 1017.78 1018.48 1018.33 1017.82 1017.32 1017.26 1016.82 1016.69 1016.40 1016.26 1016.32 1016.75 1017.48 1017.84 1018.72 1019.35 1020.15 1020.77 1021.20 1021.80
1026.94 1026.73 1026.51 1026.25 1025.89 1025.51 1025.13 1024.66 1024.19 1023.76 1023.32 1022.77 1022.20 1021.73 1021.22 1020.59 1020.12 1019.83 1019.51 1019.04 1018.62 1018.32 1018.11 1017.70 1017.48 1017.41 1017.50 1018.32 1018.36 1018.29 1017.87 1017.61 1017.59 1017.11 1016.85 1017.28 1017.12 1016.83 1017.32 1017.98 1018.82 1018.92 1019.29 1019.92 1020.42 1020.99 1021.53
1027.18 1026.86 1026.68 1026.28 1025.97 1025.68 1025.30 1024.99 1024.69 1024.23 1023.64 1023.12 1022.58 1021.96 1021.23 1020.77 1020.25 1019.68 1019.21 1018.92 1018.65 1018.36 1017.94 1017.53 1017.40 1017.21 1017.75 1018.59 1018.62 1018.49 1018.07 1017.63 1017.60 1017.32 1017.11 1017.38 1017.08 1017.23 1017.73 1018.56 1018.99 1018.79 1018.87 1018.79 1019.59 1020.54 1021.49
1027.80 1027.44 1026.75 1026.51 1026.23 1025.90 1025.59 1025.10 1024.61 1024.25 1023.85 1023.40 1022.86 1022.27 1021.65 1020.87 1020.13 1019.56 1018.87 1018.37 1018.13 1018.09 1018.03 1017.65 1017.35 1017.14 1017.79 1018.49 1018.65 1018.94 1019.04 1018.34 1017.85 1017.55 1017.46 1017.40 1017.36 1017.69 1018.24 1017.48 1017.66 1017.93 1017.03 1017.95 1019.08 1020.18 1020.93
1027.78 1027.49 1027.34 1026.83 1026.47 1026.01 1025.61 1025.25 1024.81 1024.34 1023.76 1023.22 1022.68 1022.08 1021.43 1020.86 1020.21 1019.24 1018.70 1018.00 1017.96 1018.01 1017.98 1017.79 1017.76 1017.89 1018.38 1018.64 1018.90 1018.80 1019.11 1019.13 1018.44 1017.92 1017.67 1017.60 1017.70 1017.60 1017.62 1017.11 1015.93 1016.16 1016.69 1017.34 1018.05 1019.80 1020.57
1027.63 1027.35 1026.94 1026.68 1026.32 1025.89 1025.50 1025.21 1024.76 1024.27 1023.83 1023.35 1022.86 1022.31 1021.45 1020.73 1019.87 1019.50 1018.49 1018.22 1018.29 1018.49 1018.51 1018.98 1019.30 1019.32 1019.21 1019.34 1019.22 1018.93 1019.24 1018.92 1018.36 1018.14 1017.63 1018.10 1017.84 1017.35 1017.01 1017.51 1017.47 1017.02 1017.12 1017.25 1018.37 1020.08 1020.42
1027.67 1027.31 1026.93 1026.62 1026.32 1025.93 1025.48 1024.99 1024.51 1024.10 1023.72 1023.21 1022.72 1022.20 1021.50 1020.77 1020.16 1019.43 1018.96 1019.76 1021.12 1021.28 1019.88 1019.67 1019.72 1019.90 1020.01 1020.14 1019.66 1019.42 1019.23 1019.12 1018.72 1018.34 1018.80 1018.76 1018.36 1018.96 1019.00 1019.02 1018.91 1018.69 1018.47 1018.34 1019.27 1020.55 1020.76
1027.62 1027.24 1026.87 1026.60 1026.25 1025.81 1025.48 1025.07 1024.65 1024.09 1023.65 1023.20 1022.67 1022.05 1021.38 1020.72 1020.13 1020.11 1020.55 1021.18 1021.57 1021.54 1020.47 1019.67 1019.90 1019.96 1020.47 1020.46 1020.50 1020.42 1020.08 1019.59 1018.98 1019.01 1019.34 1019.32 1020.03 1020.26 1020.22 1019.98 1019.81 1019.72 1019.53 1019.66 1020.24 1020.40 1020.18
1027.47 1027.23 1026.91 1026.53 1026.12 1025.73 1025.40 1024.96 1024.54 1024.11 1023.67 1023.25 1022.89 1022.29 1021.52 1020.57 1020.39 1020.97 1021.23 1021.52 1021.61 1021.21 1020.41 1019.55 1019.40 1019.75 1020.14 1020.06 1020.29 1020.53 1020.43 1020.33 1020.00 1019.68 1019.85 1020.19 1020.91 1021.11 1021.12 1021.14 1020.79 1020.49 1020.85 1021.16 1021.00 1020.81 1019.96
1027.40 1027.07 1026.78 1026.37 1026.00 1025.69 1025.26 1024.88 1024.44 1024.01 1023.59 1023.21 1022.92 1022.49 1021.89 1021.31 1021.37 1021.26 1021.75 1021.66 1021.55 1021.15 1019.94 1019.35 1019.43 1019.91 1019.58 1019.94 1020.27 1020.52 1020.76 1019.88 1019.61 1020.03 1020.24 1020.09 1021.04 1021.52 1021.76 1021.51 1021.95 1022.04 1022.07 1021.82 1021.62 1021.15 1021.08
1027.58 1027.28 1026.95 1026.46 1025.90 1025.50 1025.10 1024.62 1024.26 1023.72 1023.34 1023.08 1022.75 1022.42 1022.13 1021.66 1021.48 1021.54 1021.52 1021.29 1021.45 1020.48 1018.58 1018.38 1018.88 1019.21 1019.52 1019.64 1019.86 1020.21 1020.49 1020.43 1020.34 1019.97 1020.29 1020.63 1021.87 1021.87 1022.06 1022.49 1022.60 1022.77 1022.43 1022.17 1021.89 1021.23 1020.12
1027.83 1027.37 1026.90 1026.46 1026.14 1025.59 1024.96 1024.48 1024.01 1023.59 1023.12 1022.71 1022.44 1022.02 1021.75 1021.96 1021.64 1021.61 1021.45 1020.88 1020.22 1019.23 1017.87 1018.30 1018.63 1019.01 1019.15 1018.96 1019.20 1019.62 1019.92 1020.22 1020.20 1019.99 1020.11 1020.83 1021.28 1022.18 1022.78 1022.79 1023.04 1022.93 1022.37 1021.23 1020.47 1020.41 1018.26
1027.77 1027.29 1026.98 1026.49 1025.86 1025.55 1024.98 1024.38 1023.86 1023.22 1022.82 1022.48 1022.22 1021.70 1020.86 1020.94 1021.24 1021.37 1021.02 1020.48 1019.21 1017.55 1017.57 1018.15 1018.56 1018.75 1018.82 1018.84 1018.90 1018.97 1019.20 1018.98 1019.42 1019.80 1019.93 1020.10 1020.75 1022.03 1022.60 1022.75 1022.37 1022.50 1021.94 1020.45 1019.75 1018.75 1017.76
1027.99 1027.38 1026.94 1026.39 1025.87 1025.39 1024.86 1024.02 1023.53 1022.97 1022.51 1022.41 1021.82 1021.28 1020.93 1020.86 1020.91 1020.92 1020.72 1020.08 1018.29 1017.86 1018.11 1018.46 1018.45 1018.34 1018.22 1018.59 1019.02 1018.65 1018.58 1018.31 1018.60 1019.08 1019.49 1020.17 1020.63 1022.08 1022.78 1023.14 1023.10 1022.72 1022.31 1021.67 1020.18 1020.03 1018.89
1028.24 1027.60 1027.17 1026.62 1025.99 1025.44 1024.92 1024.17 1023.46 1022.78 1022.24 1022.29 1022.00 1021.55 1020.87 1021.13 1021.44 1021.24 1020.24 1018.97 1017.82 1017.61 1018.21 1018.86 1018.93 1018.63 1018.11 1018.19 1018.56 1018.56 1018.02 1018.02 1018.79 1019.42 1020.08 1020.12 1020.58 1021.75 1022.87 1023.34 1023.40 1022.98 1022.42 1021.95 1021.11 1019.85 1017.65
1028.01 1027.63 1027.33 1026.76 1026.05 1025.54 1024.98 1024.34 1023.73 1023.01 1022.68 1022.36 1022.06 1021.72 1021.25 1021.15 1020.87 1020.72 1020.06 1019.02 1018.50 1018.59 1018.86 1019.35 1019.39 1019.26 1018.23 1017.87 1017.92 1017.97 1017.59 1018.34 1019.16 1020.68 1021.29 1020.90 1021.17 1022.03 1022.94 1022.62 1021.83 1023.40 1022.56 1021.88 1021.07 1020.15 1018.66
1027.72 1027.52 1027.24 1026.72 1026.20 1025.73 1025.07 1024.44 1023.89 1023.20 1022.81 1022.45 1022.30 1021.73 1021.30 1021.22 1021.43 1021.04 1019.87 1019.08 1018.57 1018.94 1019.63 1020.01 1020.25 1019.65 1018.91 1018.16 1017.76 1017.80 1017.36 1017.23 1018.57 1019.41 1020.70 1021.31 1021.48 1021.45 1021.25 1021.66 1022.44 1022.47 1021.87 1021.37 1020.33 1019.75 1019.43
1027.65 1027.32 1027.01 1026.59 1026.15 1025.60 1025.16 1024.66 1024.00 1023.37 1023.01 1022.92 1022.35 1021.42 1021.22 1021.07 1021.22 1020.41 1019.79 1019.64 1020.00 1019.88 1019.73 1020.06 1020.19 1019.67 1019.27 1018.77 1018.68 1017.97 1018.51 1019.48 1019.93 1019.93 1020.02 1020.83 1021.34 1020.91 1020.40 1022.32 1022.64 1022.20 1021.44 1021.23 1021.04 1020.25 1019.03
1027.62 1027.10 1026.80 1026.31 1025.88 1025.38 1024.87 1024.44 1024.05 1023.53 1023.21 1023.20 1022.61 1021.36 1021.14 1021.16 1020.90 1020.62 1020.59 1020.25 1020.50 1020.92 1021.32 1021.19 1020.87 1020.44 1020.17 1019.60 1019.43 1019.10 1019.36 1020.74 1021.31 1021.56 1021.08 1020.98 1020.89 1019.69 1018.66 1018.39 1020.25 1021.19 1020.63 1020.61 1020.55 1020.03 1017.78
1027.05 1026.79 1026.43 1026.06 1025.64 1025.09 1024.60 1024.08 1023.71 1023.47 1023.30 1023.08 1022.33 1021.07 1020.66 1020.62 1020.41 1020.66 1020.80 1020.73 1020.69 1020.73 1021.12 1021.07 1021.03 1020.73 1020.65 1020.72 1020.21 1019.85 1019.92 1020.62 1021.44 1021.78 1022.26 1021.97 1020.71 1019.71 1018.18 1018.10 1018.89 1018.34 1018.55 1019.31 1018.75 1016.59 1017.67
1026.92 1026.53 1026.14 1025.57 1025.10 1024.84 1024.35 1024.01 1023.68 1023.18 1022.97 1022.79 1021.95 1021.46 1021.30 1020.40 1020.13 1020.17 1020.26 1019.50 1019.45 1019.50 1020.53 1020.48 1020.76 1020.05 1020.78 1020.71 1019.65 1019.08 1019.72 1020.64 1020.42 1021.67 1021.94 1021.71 1020.86 1020.29 1018.31 1018.19 1018.16 1017.32 1016.87 1016.46 1015.61 1015.19 1014.92
1026.47 1025.93 1025.50 1025.15 1024.72 1024.44 1024.09 1023.76 1023.49 1023.17 1022.95 1022.27 1021.40 1021.25 1021.05 1019.95 1019.69 1019.59 1019.16 1018.67 1018.50 1019.28 1018.92 1018.76 1019.31 1019.86 1020.21 1019.74 1019.61 1019.47 1019.55 1019.72 1020.11 1020.86 1021.27 1021.64 1021.40 1020.72 1018.41 1018.47 1018.24 1016.18 1013.93 1013.97 1013.90 1013.30 1013.39
1025.88 1025.53 1025.10 1024.74 1024.26 1023.96 1023.71 1023.36 1023.10 1022.75 1022.53 1022.21 1021.48 1021.53 1020.73 1018.91 1018.82 1018.24 1017.98 1018.03 1017.97 1018.17 1018.34 1018.76 1019.17 1019.70 1019.55 1019.84 1020.05 1020.28 1020.22 1020.33 1020.34 1020.37 1020.63 1021.03 1021.30 1021.16 1019.34 1018.85 1016.52 1012.75 1013.45 1013.68 1013.17 1013.15 1013.26
1024.82 1024.68 1024.54 1024.11 1023.70 1023.48 1023.15 1022.98 1022.67 1022.22 1021.78 1021.71 1021.57 1021.72 1020.39 1018.76 1018.50 1018.13 1017.88 1017.56 1017.33 1017.69 1018.30 1018.76 1019.14 1019.49 1019.95 1020.44 1020.26 1019.91 1019.55 1019.58 1019.15 1019.84 1020.41 1020.84 1021.14 1020.59 1019.61 1017.93 1013.95 1012.40 1013.99 1014.35 1014.04 1012.38 1012.38
1024.38 1024.02 1023.66 1023.43 1023.20 1022.75 1022.67 1022.37 1022.13 1021.89 1021.43 1021.01 1021.03 1021.08 1020.96 1019.36 1018.09 1017.66 1017.93 1017.67 1017.51 1017.32 1017.84 1018.88 1020.20 1020.31 1020.42 1020.23 1020.02 1018.75 1017.99 1017.72 1018.63 1019.78 1020.23 1020.73 1020.91 1020.74 1019.67 1018.56 1015.33 1013.88 1014.64 1015.17 1015.13 1013.56 1012.92
1023.67 1023.39 1023.06 1022.83 1022.59 1022.24 1022.09 1021.79 1021.71 1021.22 1021.06 1020.74 1020.36 1020.58 1020.28 1019.51 1018.34 1018.51 1017.95 1017.75 1017.92 1018.00 1018.30 1019.26 1020.31 1020.83 1020.79 1019.88 1019.33 1018.23 1017.03 1017.27 1017.61 1018.20 1019.53 1020.21 1020.26 1019.26 1019.11 1018.07 1015.25 1014.15 1015.18 1015.87 1016.08 1015.07 1014.34
1022.98 1022.59 1022.33 1021.96 1021.86 1021.68 1021.55 1021.16 1021.15 1020.74 1020.36 1020.16 1019.71 1019.73 1019.85 1018.88 1017.60 1017.65 1017.60 1017.82 1017.98 1018.05 1018.44 1019.44 1020.55 1020.55 1020.56 1019.83 1018.46 1017.05 1016.67 1016.45 1016.95 1016.79 1017.57 1018.05 1018.70 1018.59 1018.75 1018.46 1016.32 1015.34 1016.29 1016.43 1015.82 1015.71 1015.45
1022.31 1021.96 1021.66 1021.32 1021.28 1021.12 1020.93 1020.80 1020.48 1020.09 1019.74 1019.44 1019.23 1019.18 1019.17 1018.85 1017.73 1017.49 1017.13 1017.10 1017.10 1017.37 1017.83 1018.97 1018.19 1018.61 1018.80 1018.59 1017.61 1016.98 1016.78 1016.84 1016.43 1016.20 1016.82 1017.30 1016.46 1016.71 1016.81 1015.32 1015.03 1015.29 1015.67 1016.02 1016.61 1016.41 1016.76
Wind_Speed
14 14 14 15 15 15 16 16 16 17 16 16 15 15 15 14 14 13 12 10 8 8 8 7 7 8 2 0 1 7 16 11 4 2 5 2 1 2 2 4 2 3 5 4 5 6 6
14 15 15 15 15 15 15 15 16 16 16 16 15 14 15 15 15 12 11 10 10 9 8 8 8 5 2 4 2 9 10 4 9 5 6 5 3 3 7 4 2 4 7 7 3 5 5
14 15 16 17 17 17 17 17 17 16 18 18 17 16 15 14 14 15 15 13 11 9 9 7 3 1 1 2 1 8 6 2 4 2 4 3 2 0 4 6 7 9 6 4 6 6 4
13 14 14 14 15 16 16 17 18 19 20 21 21 19 17 16 17 15 14 15 14 11 9 2 1 1 1 1 3 8 10 1 4 4 5 3 7 10 2 10 4 3 4 5 7 7 5
17 17 14 15 16 17 18 17 16 18 20 22 22 22 22 19 17 16 14 15 12 7 4 2 3 2 2 2 1 6 7 5 5 2 5 5 4 4 6 7 5 7 7 9 4 8 6
14 15 16 16 16 17 17 18 18 18 18 18 19 19 19 20 22 16 16 4 4 3 4 1 2 3 2 0 3 3 4 6 3 0 2 2 3 4 5 8 7 8 7 6 8 8 10
11 12 11 12 13 13 14 16 17 17 18 19 20 22 20 19 18 17 8 2 2 2 8 3 4 6 3 5 1 5 4 3 0 1 4 2 6 10 9 5 3 1 5 10 3 4 6
10 11 11 12 14 14 14 14 15 15 16 17 18 20 23 21 17 11 3 6 3 3 5 1 2 3 3 4 3 4 7 1 1 3 1 3 8 4 7 3 1 2 6 8 1 3 5
11 11 11 13 14 14 14 15 16 16 16 17 18 20 22 21 9 4 6 4 2 2 5 2 1 2 3 5 4 8 8 1 3 2 1 6 3 4 1 4 4 4 7 4 5 5 10
12 13 14 13 13 14 14 14 15 16 15 15 16 18 20 24 1 3 2 2 4 2 5 3 3 3 2 1 1 1 1 1 2 1 0 2 4 3 2 4 5 5 1 1 1 5 6
13 13 14 14 14 15 15 15 15 16 15 14 15 16 17 8 5 3 5 5 4 4 6 2 2 2 2 3 3 2 1 3 4 4 4 2 6 6 5 1 4 3 2 1 1 5 6
16 16 16 16 14 15 16 16 16 15 14 12 12 14 13 1 2 0 4 2 3 4 9 3 2 1 3 1 1 2 1 4 2 3 1 1 1 2 1 5 3 9 2 1 1 3 7
15 15 15 15 16 17 17 17 17 16 16 11 11 13 6 1 4 2 3 2 4 5 3 1 0 1 2 2 1 2 1 2 4 3 4 4 4 4 2 4 4 4 3 4 5 4 5
14 14 14 14 14 15 16 17 17 16 16 10 11 15 4 3 1 1 2 3 6 1 2 0 2 2 5 2 3 2 2 5 3 2 2 4 6 9 8 3 2 8 4 5 8 8 5
17 15 14 13 14 15 15 15 16 16 15 6 11 3 4 1 3 2 1 4 6 4 0 4 2 4 3 2 4 3 5 4 3 11 8 4 4 3 2 1 2 7 8 3 2 3 6
18 18 17 17 17 16 17 18 17 17 8 5 4 3 3 3 1 3 3 7 7 5 5 3 5 2 4 1 4 2 2 4 3 3 3 2 8 3 3 2 3 5 4 3 2 5 8
18 19 20 20 18 17 16 18 19 17 8 6 1 3 2 1 3 2 6 8 5 1 3 5 2 5 10 5 7 6 4 3 4 4 2 2 4 5 3 12 8 6 6 5 2 5 5
18 19 19 20 18 17 18 17 19 18 10 3 0 4 3 3 2 1 3 6 3 6 3 1 2 6 12 5 7 7 9 8 9 13 8 4 2 8 9 4 2 3 5 11 8 8 5
18 18 20 19 19 17 17 18 17 17 4 3 5 4 2 0 6 7 5 6 4 5 6 7 6 8 3 6 8 8 5 3 8 10 9 8 5 6 6 2 0 7 11 8 2 3 15
19 20 19 19 19 18 16 15 16 16 2 2 3 5 2 1 0 4 7 4 4 4 5 2 4 3 2 3 5 5 3 2 3 2 6 8 7 13 14 9 5 7 11 16 13 10 12
21 21 20 20 20 19 16 13 13 14 5 2 3 5 1 4 4 5 4 1 3 2 5 4 4 10 7 5 4 7 7 5 5 8 6 7 10 17 23 20 14 20 20 19 24 29 17
21 20 20 20 19 20 18 16 13 13 4 3 3 3 1 3 3 4 4 7 13 10 4 4 6 8 11 9 10 12 6 8 8 11 13 8 6 3 10 16 18 22 22 24 30 29 30
22 22 21 21 20 20 18 15 16 15 5 3 1 1 3 5 4 4 6 12 13 4 10 15 9 4 10 19 14 14 8 2 4 10 16 9 5 3 9 2 8 19 25 26 19 19 24
23 22 22 21 20 19 19 17 17 17 13 5 3 2 4 13 12 11 12 13 15 19 17 11 11 10 1 6 5 2 2 7 9 13 11 9 9 3 6 5 11 2 4 2 13 17 19
21 21 22 21 21 20 19 18 18 19 16 7 4 3 4 12 9 9 15 18 14 12 15 10 9 2 9 3 1 5 4 4 8 13 14 11 8 4 5 7 18 14 4 6 8 6 19
22 22 21 21 20 18 19 20 20 16 17 5 4 4 4 8 6 12 13 8 13 14 12 5 2 4 3 3 4 5 7 7 4 4 3 13 13 8 4 6 9 5 1 2 3 8 2
22 24 22 21 20 20 19 18 18 17 18 10 4 6 4 7 8 6 6 8 3 3 3 2 4 5 2 4 5 7 9 2 6 8 9 6 8 18 13 10 12 4 8 3 3 3 6
23 23 21 20 19 18 17 16 18 19 19 12 6 6 4 5 11 13 11 9 9 5 10 2 3 4 4 6 6 6 6 5 3 3 8 12 11 8 9 8 15 9 6 6 3 1 7
21 19 18 17 16 18 17 17 18 20 19 16 7 2 5 7 6 2 6 5 7 9 2 7 5 5 8 6 6 2 5 4 5 6 9 7 8 6 11 8 2 13 2 2 1 4 4
Wind_Direction
27 24 23 22 22 19 16 12 9 8 6 3 358 354 351 346 339 335 335 329 330 329 315 315 322 331 245 180 52 343 333 338 345 5 48 45 188 144 140 101 102 87 126 73 92 101 95
22 21 16 16 15 16 15 10 5 3 3 -0 357 352 349 343 337 324 321 324 318 330 321 307 312 308 254 274 354 341 339 358 17 18 43 29 84 104 98 70 2 91 107 115 141 132 140
24 19 14 9 9 8 5 3 1 358 357 356 354 349 342 337 330 325 313 305 303 291 316 315 315 340 22 74 295 353 2 44 351 24 102 41 47 12 133 116 129 143 130 162 181 174 164
20 21 14 11 6 2 1 0 357 356 357 357 353 348 342 335 329 323 313 307 302 287 298 308 86 199 178 6 313 360 348 130 33 58 93 102 96 101 68 116 114 213 223 222 152 181 151
9 7 13 7 5 3 359 358 358 357 356 354 351 349 343 336 330 321 313 305 294 279 294 252 218 242 180 146 356 349 355 332 310 128 67 94 77 91 152 177 178 199 260 225 185 201 169
13 11 4 7 4 4 1 358 355 352 352 351 348 346 344 337 331 325 322 321 34 133 10 311 53 194 140 131 327 357 3 337 332 340 137 45 75 172 179 196 239 188 220 220 237 175 216
2 359 359 354 355 358 358 354 352 350 348 348 346 343 341 339 345 334 336 278 291 181 45 46 349 324 353 338 249 36 10 316 278 67 223 51 224 222 230 244 349 280 251 249 168 142 247
341 341 340 341 342 343 345 345 346 344 343 344 347 345 342 341 338 345 15 48 33 338 304 59 325 310 357 341 307 29 356 269 285 230 291 200 241 64 95 97 224 238 264 260 139 168 248
321 322 324 328 331 332 332 334 335 337 339 343 345 345 342 335 332 27 45 76 316 249 270 108 37 353 348 334 20 348 350 25 55 192 284 262 60 129 111 153 188 227 246 256 291 306 239
317 318 318 318 319 319 319 322 324 327 332 336 342 344 343 329 86 349 43 348 298 243 280 163 164 141 200 126 198 305 32 21 98 327 326 306 127 186 194 251 211 245 107 135 311 322 280
344 336 330 324 319 316 313 313 313 317 321 329 339 342 344 12 306 326 335 317 273 235 318 92 149 41 149 258 36 159 325 204 174 164 174 138 179 188 227 283 199 9 72 50 272 261 311
12 6 359 347 336 325 318 313 310 308 308 316 331 336 339 334 286 10 302 291 248 253 247 162 177 232 273 161 145 324 284 36 74 147 175 82 63 236 60 110 93 134 150 166 176 239 243
11 7 1 356 354 354 347 332 319 312 307 308 322 322 311 210 299 335 291 248 275 237 35 66 275 338 308 278 182 23 356 233 242 254 200 168 185 135 187 147 139 194 210 266 235 204 269
6 4 360 359 359 354 351 348 340 329 313 310 314 307 227 215 131 278 258 261 253 241 290 25 268 271 270 316 201 206 207 251 201 69 327 278 255 180 167 267 246 190 251 241 256 276 320
352 352 350 349 351 349 345 346 344 341 330 341 307 300 283 71 176 184 186 249 283 277 327 322 272 257 240 219 295 296 225 250 186 191 194 215 229 130 177 186 246 150 214 12 320 171 264
340 342 339 338 341 343 341 341 341 344 351 3 323 329 277 46 1 278 194 228 228 175 145 124 263 252 283 214 264 259 260 138 167 206 309 206 280 187 130 194 200 249 132 158 205 262 255
338 335 330 333 341 336 337 340 342 350 348 317 13 298 86 276 191 207 250 244 277 137 189 166 190 248 254 256 232 217 256 159 121 135 269 203 255 126 159 206 193 175 216 218 305 231 251
335 333 331 331 330 335 335 334 340 342 332 341 303 256 33 299 195 355 214 212 166 177 137 167 237 246 253 225 231 235 234 213 156 151 166 194 286 266 244 118 342 271 256 204 224 209 250
327 325 325 324 327 329 330 329 330 337 2 308 287 260 84 180 245 215 250 287 302 207 200 168 221 233 247 233 252 217 224 66 167 175 160 159 202 282 203 186 102 224 206 228 306 3 233
322 319 318 317 318 315 320 324 327 327 266 276 284 289 167 171 210 263 291 248 241 34 9 348 258 244 248 285 271 284 272 23 211 244 133 146 211 220 254 291 130 213 208 211 210 238 245
318 316 315 315 318 319 311 311 318 322 254 252 226 240 122 251 235 216 182 216 264 273 205 219 234 241 182 232 238 235 258 193 190 207 216 217 245 236 251 264 254 250 245 218 210 227 230
307 307 309 310 312 314 324 323 312 322 233 254 269 265 203 274 196 218 241 208 261 277 212 202 242 259 201 218 226 274 223 199 216 182 193 208 253 239 269 247 252 264 253 238 233 235 241
304 304 304 308 313 315 315 319 328 313 276 269 308 15 226 228 211 220 222 262 265 241 227 255 221 212 207 233 263 281 260 224 211 181 193 176 220 201 271 67 284 272 243 229 233 233 221
292 296 301 305 304 309 310 311 315 311 289 270 284 281 252 271 236 232 247 235 250 257 259 240 240 242 267 114 120 63 268 258 230 214 199 190 185 193 278 293 251 5 173 245 241 242 227
296 298 295 297 304 306 309 306 307 302 304 289 274 268 251 264 283 278 253 258 266 249 266 264 261 335 129 136 258 268 208 244 235 223 214 209 185 227 249 231 297 291 162 195 198 252 220
302 302 295 292 298 307 311 307 303 307 312 294 267 223 265 295 259 278 266 252 263 262 258 197 137 136 129 190 227 250 263 294 223 168 269 210 227 216 172 249 263 65 154 209 235 271 171
300 299 299 295 286 290 305 312 311 307 308 303 271 202 250 269 260 254 251 278 191 244 258 155 167 164 214 186 226 233 254 156 223 210 171 190 211 226 231 247 277 277 145 158 249 14 143
301 298 296 298 290 285 294 305 309 307 301 292 279 204 221 254 267 253 240 243 268 242 275 115 163 178 170 221 225 231 240 204 241 166 182 181 181 198 205 217 262 126 113 214 354 60 135
302 296 297 301 299 292 290 295 302 309 308 293 280 205 254 247 272 230 221 216 216 248 238 191 285 179 206 214 218 230 224 186 221 252 179 221 214 188 204 214 79 190 46 142 269 156 157